When you browse on this site, cookies collect data to enhance your experience and personalize the content and advertising you see.
Visit our Privacy Policy to learn more. By continuing to use the site, you agree to this use of cookies and data.
  • en Suisse
  • Liste des pays
  • À 7 jours
  • Température de l'eau
  • Carte satellitaire
  • Carte météo
  • Widgets météo
  • user-avatar
    Se connecter

    Météo par heure à Nairobi

    Ce jour, 26 Juin, Mercredi

    Heure Température Précipitation Vent Pression Humidité
    00:00 +16°C° 0 mm 1 m/s 623 mmHg 92%
    01:00 +16°C° 0 mm 1 m/s 623 mmHg 93%
    02:00 +16°C° 0 mm 1 m/s 622 mmHg 94%
    03:00 +16°C° 0 mm 1 m/s 622 mmHg 94%
    04:00 +16°C° 0 mm 1 m/s 623 mmHg 94%
    05:00 +16°C° 0 mm 1 m/s 623 mmHg 94%
    06:00 +16°C° 0 mm 1 m/s 623 mmHg 91%
    07:00 +18°C° 0 mm 1 m/s 624 mmHg 88%
    08:00 +18°C° 0 mm 1 m/s 624 mmHg 86%
    09:00 +19°C° 0.1 mm 1 m/s 624 mmHg 82%
    10:00 +20°C° 0.1 mm 1 m/s 624 mmHg 78%
    11:00 +20°C° 0.1 mm 1 m/s 624 mmHg 74%
    12:00 +20°C° 0.1 mm 2 m/s 624 mmHg 72%
    13:00 +21°C° 0.1 mm 2 m/s 624 mmHg 69%
    14:00 +22°C° 0.1 mm 3 m/s 624 mmHg 67%
    15:00 +21°C° 0.2 mm 2 m/s 624 mmHg 71%
    16:00 +20°C° 0.2 mm 2 m/s 623 mmHg 75%
    17:00 +20°C° 0.2 mm 2 m/s 623 mmHg 79%
    18:00 +19°C° 0.2 mm 2 m/s 623 mmHg 83%
    19:00 +18°C° 0.2 mm 2 m/s 623 mmHg 86%
    20:00 +17°C° 0.2 mm 2 m/s 623 mmHg 89%
    21:00 +18°C° 0.2 mm 1 m/s 624 mmHg 89%
    22:00 +18°C° 0.2 mm 1 m/s 624 mmHg 89%
    23:00 +18°C° 0.2 mm 1 m/s 624 mmHg 89%

    Demain, 27 Juin, Jeudi

    Heure Température Précipitation Vent Pression Humidité
    00:00 +18°C° 0 mm 1 m/s 623 mmHg 89%
    01:00 +16°C° 0 mm 1 m/s 623 mmHg 89%
    02:00 +16°C° 0 mm 1 m/s 622 mmHg 89%
    03:00 +16°C° 0 mm 1 m/s 623 mmHg 90%
    04:00 +16°C° 0 mm 1 m/s 623 mmHg 91%
    05:00 +16°C° 0 mm 1 m/s 623 mmHg 91%
    06:00 +16°C° 0 mm 1 m/s 624 mmHg 88%
    07:00 +18°C° 0 mm 1 m/s 624 mmHg 84%
    08:00 +19°C° 0 mm 1 m/s 625 mmHg 81%
    09:00 +20°C° 0 mm 1 m/s 625 mmHg 77%
    10:00 +20°C° 0 mm 2 m/s 625 mmHg 73%
    11:00 +21°C° 0 mm 2 m/s 625 mmHg 69%
    12:00 +21°C° 0.1 mm 2 m/s 624 mmHg 70%
    13:00 +21°C° 0.1 mm 3 m/s 623 mmHg 71%
    14:00 +21°C° 0.1 mm 3 m/s 623 mmHg 72%
    15:00 +20°C° 0.1 mm 3 m/s 623 mmHg 73%
    16:00 +20°C° 0.1 mm 2 m/s 623 mmHg 75%
    17:00 +20°C° 0.1 mm 2 m/s 623 mmHg 76%
    18:00 +19°C° 0 mm 2 m/s 623 mmHg 80%
    19:00 +19°C° 0 mm 1 m/s 623 mmHg 83%
    20:00 +18°C° 0 mm 1 m/s 623 mmHg 87%
    21:00 +16°C° 0 mm 1 m/s 623 mmHg 88%
    22:00 +16°C° 0 mm 1 m/s 623 mmHg 89%
    23:00 +16°C° 0 mm 1 m/s 623 mmHg 90%

    Après-demain, 28 Juin, Vendredi

    Heure Température Précipitation Vent Pression Humidité
    00:00 +15°C° 0 mm 1 m/s 623 mmHg 91%
    01:00 +15°C° 0 mm 1 m/s 622 mmHg 91%
    02:00 +14°C° 0 mm 1 m/s 622 mmHg 92%
    03:00 +14°C° 0 mm 1 m/s 622 mmHg 92%
    04:00 +14°C° 0 mm 1 m/s 622 mmHg 92%
    05:00 +14°C° 0 mm 1 m/s 622 mmHg 92%
    06:00 +15°C° 0 mm 1 m/s 623 mmHg 88%
    07:00 +17°C° 0 mm 2 m/s 624 mmHg 84%
    08:00 +19°C° 0 mm 2 m/s 625 mmHg 79%
    09:00 +20°C° 0 mm 2 m/s 625 mmHg 74%
    10:00 +21°C° 0 mm 3 m/s 625 mmHg 68%
    11:00 +24°C° 0 mm 3 m/s 625 mmHg 63%
    12:00 +24°C° 0.2 mm 3 m/s 624 mmHg 63%
    13:00 +24°C° 0.2 mm 3 m/s 623 mmHg 63%
    14:00 +24°C° 0.2 mm 3 m/s 623 mmHg 63%
    15:00 +24°C° 0.5 mm 3 m/s 623 mmHg 66%
    16:00 +23°C° 0.5 mm 2 m/s 623 mmHg 69%
    17:00 +21°C° 0.5 mm 2 m/s 623 mmHg 72%
    18:00 +20°C° 0.3 mm 2 m/s 623 mmHg 75%
    19:00 +19°C° 0.3 mm 2 m/s 623 mmHg 77%
    20:00 +18°C° 0.3 mm 2 m/s 623 mmHg 79%
    21:00 +17°C° 0 mm 2 m/s 623 mmHg 81%
    22:00 +17°C° 0 mm 2 m/s 623 mmHg 84%
    23:00 +16°C° 0 mm 2 m/s 623 mmHg 86%

    29 Juin, Samedi

    Heure Température Précipitation Vent Pression Humidité
    00:00 +15°C° 0 mm 2 m/s 623 mmHg 88%
    01:00 +15°C° 0 mm 1 m/s 622 mmHg 90%
    02:00 +14°C° 0 mm 1 m/s 622 mmHg 92%
    03:00 +14°C° 0 mm 1 m/s 622 mmHg 92%
    04:00 +13°C° 0 mm 0 m/s 622 mmHg 93%
    05:00 +13°C° 0 mm 0 m/s 623 mmHg 93%
    06:00 +15°C° 0 mm 1 m/s 623 mmHg 88%
    07:00 +18°C° 0 mm 1 m/s 624 mmHg 84%
    08:00 +19°C° 0 mm 1 m/s 625 mmHg 79%
    09:00 +19°C° 0 mm 2 m/s 625 mmHg 74%
    10:00 +20°C° 0 mm 2 m/s 625 mmHg 69%
    11:00 +22°C° 0 mm 3 m/s 625 mmHg 64%
    12:00 +22°C° 0 mm 3 m/s 625 mmHg 62%
    13:00 +22°C° 0 mm 3 m/s 624 mmHg 61%
    14:00 +24°C° 0 mm 3 m/s 624 mmHg 59%
    15:00 +22°C° 0 mm 3 m/s 624 mmHg 62%
    16:00 +23°C° 0 mm 2 m/s 623 mmHg 64%
    17:00 +21°C° 0 mm 2 m/s 623 mmHg 67%
    18:00 +20°C° 0 mm 2 m/s 623 mmHg 67%
    19:00 +19°C° 0 mm 2 m/s 624 mmHg 67%
    20:00 +18°C° 0 mm 2 m/s 624 mmHg 68%
    21:00 +17°C° 0 mm 2 m/s 624 mmHg 70%
    22:00 +17°C° 0 mm 2 m/s 624 mmHg 71%
    23:00 +16°C° 0 mm 2 m/s 624 mmHg 73%

    30 Juin, Dimanche

    Heure Température Précipitation Vent Pression Humidité
    00:00 +15°C° 0 mm 1 m/s 623 mmHg 78%
    01:00 +15°C° 0 mm 1 m/s 623 mmHg 82%
    02:00 +14°C° 0 mm 1 m/s 622 mmHg 86%
    03:00 +14°C° 0 mm 1 m/s 622 mmHg 87%
    04:00 +14°C° 0 mm 1 m/s 623 mmHg 87%
    05:00 +12°C° 0 mm 0 m/s 623 mmHg 88%
    06:00 +15°C° 0 mm 1 m/s 624 mmHg 82%
    07:00 +16°C° 0 mm 1 m/s 625 mmHg 75%
    08:00 +19°C° 0 mm 1 m/s 625 mmHg 69%
    09:00 +19°C° 0 mm 2 m/s 626 mmHg 65%
    10:00 +21°C° 0 mm 3 m/s 626 mmHg 62%
    11:00 +22°C° 0 mm 3 m/s 626 mmHg 58%
    12:00 +22°C° 0 mm 3 m/s 625 mmHg 57%
    13:00 +24°C° 0 mm 3 m/s 625 mmHg 56%
    14:00 +24°C° 0 mm 3 m/s 624 mmHg 55%
    15:00 +22°C° 0 mm 3 m/s 624 mmHg 58%
    16:00 +23°C° 0 mm 2 m/s 624 mmHg 61%
    17:00 +21°C° 0 mm 2 m/s 624 mmHg 64%
    18:00 +20°C° 0 mm 2 m/s 624 mmHg 67%
    19:00 +19°C° 0 mm 2 m/s 624 mmHg 71%
    20:00 +18°C° 0 mm 2 m/s 624 mmHg 74%
    21:00 +17°C° 0 mm 2 m/s 624 mmHg 79%
    22:00 +16°C° 0 mm 1 m/s 624 mmHg 83%
    23:00 +16°C° 0 mm 1 m/s 624 mmHg 88%

    1 Juillet, Lundi

    Heure Température Précipitation Vent Pression Humidité
    00:00 +16°C° 0 mm 1 m/s 624 mmHg 89%
    01:00 +16°C° 0 mm 1 m/s 624 mmHg 89%
    02:00 +16°C° 0 mm 1 m/s 623 mmHg 90%
    03:00 +16°C° 0 mm 1 m/s 623 mmHg 90%
    04:00 +15°C° 0 mm 1 m/s 624 mmHg 90%
    05:00 +15°C° 0 mm 1 m/s 624 mmHg 90%
    06:00 +16°C° 0 mm 1 m/s 624 mmHg 86%
    07:00 +17°C° 0 mm 2 m/s 625 mmHg 81%
    08:00 +18°C° 0 mm 2 m/s 625 mmHg 77%
    09:00 +20°C° 0 mm 2 m/s 625 mmHg 70%
    10:00 +21°C° 0 mm 3 m/s 625 mmHg 64%
    11:00 +22°C° 0 mm 3 m/s 625 mmHg 58%
    12:00 +24°C° 0.1 mm 3 m/s 625 mmHg 57%
    13:00 +24°C° 0.1 mm 3 m/s 624 mmHg 56%
    14:00 +24°C° 0.1 mm 3 m/s 624 mmHg 55%
    15:00 +22°C° 0.1 mm 3 m/s 623 mmHg 60%
    16:00 +21°C° 0.1 mm 3 m/s 623 mmHg 64%
    17:00 +21°C° 0.1 mm 2 m/s 623 mmHg 69%
    18:00 +20°C° 0.1 mm 2 m/s 623 mmHg 70%
    19:00 +19°C° 0.1 mm 2 m/s 623 mmHg 71%
    20:00 +19°C° 0.1 mm 2 m/s 624 mmHg 73%
    21:00 +19°C° 0 mm 2 m/s 624 mmHg 74%
    22:00 +18°C° 0 mm 2 m/s 624 mmHg 75%
    23:00 +18°C° 0 mm 2 m/s 623 mmHg 77%
    Voir plus